Regional Weather Roundup
Issued by NWS Newport/Morehead, NC

Current Version | Previous Version | Text Only | Print | Product List | Glossary On
Versions: 1 2 3 4 5 6 7 8 9 10 11 12 13 14 15 16 17 18 19 20 21 22 23 24 25 26 27 28 29 30 31 32 33 34 35 36 37 38 39 40 41 42 43 44 45 46 47 48 49 50
000 ASUS42 KMHX 260725 RWRMHX WEATHER ROUNDUP FOR EASTERN NORTH CAROLINA NATIONAL WEATHER SERVICE NEWPORT/MOREHEAD CITY NC 300 AM EDT THU MAY 26 2016 NOTE: "FAIR" INDICATES FEW OR NO CLOUDS BELOW 12,000 FEET WITH NO SIGNIFICANT WEATHER AND/OR OBSTRUCTIONS TO VISIBILITY NCZ015>017-031-032-045>047-102-103-260800- NORTH COAST CITY SKY/WX TMP DP RH WIND PRES REMARKS EDENTON PTCLDY N/A N/A N/A S9 30.17F ELIZABETH CITY CLEAR 67 60 78 SW8 30.16F KITTY HAWK PTSUNNY 68 62 79 S3 30.17S MANTEO NOT AVBL $$ NCZ045>047-081-094-103-104-260800- CENTRAL COAST CITY SKY/WX TMP DP RH WIND PRES REMARKS FRISCO CLEAR 70 66 87 SW5 30.20S $$ NCZ095-097-098-100-101-260800- SOUTHERN COAST CITY SKY/WX TMP DP RH WIND PRES REMARKS BEAUFORT PTCLDY 71 67 87 S7 30.19F CEDAR ISLAND NOT AVBL JACKSONVILLE PTCLDY 68 64 87 CALM 30.18F PINEY ISLAND NOT AVBL WILMINGTON CLEAR 69 66 90 S5 30.18F $$ NCZ011>013-027>030-043-044-078>080-089-090>093-098-260800- COASTAL PLAIN CITY SKY/WX TMP DP RH WIND PRES REMARKS AHOSKIE NOT AVBL CLINTON PTCLDY 66 65 96 CALM 30.17S ELIZABETHTOWN NOT AVBL GOLDSBORO PTCLDY 69 67 94 S6 30.15F GREENVILLE PTCLDY 68 61 77 SW7 30.17F HAVELOCK CLOUDY 67 64 90 S6 30.20F KENANSVILLE MOCLDY 65 63 94 CALM 30.18S KINSTON PTCLDY 69 62 79 S7 30.17S NEW BERN PTCLDY 67 64 90 S5 30.19F RICHLANDS MOCLDY 65 64 97 S5 30.18F ROCKY MOUNT CLEAR 67 61 81 S6 30.15F WASHINGTON PTCLDY 66 62 85 S5 30.17S WHITEVILLE PTCLDY 68 65 92 CALM 30.17S $$ AMZ130-135-150-152-154-156-158-170-250-252-270-ANZ085-086-088-633-658-670-260800- MARINE OBSERVATIONS STATION/POSITION TIME TEMP WIND PRES WAVE SWELL AIR SEA DIR/SP/G HT/PER HT/PER (UTC) (F) (DEG/KT/KT) (MB) (FT/S) (FT/S) CHESAPEAKE LIGHT 0700 70 220/ 16/ 18 1021.2 64 E VA BEACH 0650 63 58 220/ 10/ 12 1021.2 3/ 9 2/ 9 DUCK 0700 71 60 200/ 9/ 11 1021.1 2 E DUCK 0611 62 N/A 2/ 9 OREGON INLET 0700 72 74 190/ 8/ 10 1022.0 13E OREGON INLT 0700 65 N/A 2/ 8 2/ 8 HATTERAS CG 0700 70 72 210/ 5/ 8 1022.1 DIAMOND BUOY 0650 71 69 240/ 6/ 6 1022.9 2/ 7 2/ 7 CAPE LOOKOUT 0700 71 180/ 5/ 6 1022.3 BEAUFORT LAB 0700 72 70 200/ 5/ 7 1021.6 30 SE NEW RVR IN 0625 74 N/A 2/ 8 27 SE WRIGHTSVLE 0608 75 74 220/ 8/ 12 1022.0 5 SE WRIGHTSVLE NOT AVBL 225 S CAPE HAT 0650 75 78 80/ 10/ 12 1023.2 2/ 8 2/ 8 41 SE CHARLESTON 0650 77 76 170/ 8/ 10 1021.8 2/ 9 2/ 9 $$

USA.gov is the U.S. government's official web portal to all federal, state and local government web resources and services.